Time,TemperatureF,DewpointF,PressureIn,WindDirection,WindDirectionDegrees,WindSpeedMPH,WindSpeedGustMPH,Humidity,HourlyPrecipIn,Conditions,Clouds,dailyrainin,SoftwareType,DateUTC
2013-10-14 00:02:00,68.1,59.9,30.14,East,92,6.0,10.0,75,0.00,,---,0.00,VWS V14.00,2013-10-14 05:02:00,
2013-10-14 00:07:00,68.1,59.9,30.14,East,92,7.0,10.0,75,0.00,,---,0.00,VWS V14.00,2013-10-14 05:07:00,
2013-10-14 00:12:00,68.0,59.8,30.13,East,92,5.0,7.0,75,0.00,,---,0.00,VWS V14.00,2013-10-14 05:12:00,
2013-10-14 00:17:00,67.9,59.7,30.13,East,92,5.0,10.0,75,0.00,,---,0.00,VWS V14.00,2013-10-14 05:17:00,
2013-10-14 00:22:00,67.9,59.7,30.13,East,94,5.0,10.0,75,0.00,,---,0.00,VWS V14.00,2013-10-14 05:22:00,
2013-10-14 00:27:00,67.8,59.6,30.13,East,97,7.0,10.0,75,0.00,,---,0.00,VWS V14.00,2013-10-14 05:27:00,
2013-10-14 00:32:00,67.7,59.5,30.13,East,101,5.0,10.0,75,0.00,,---,0.00,VWS V14.00,2013-10-14 05:32:00,
2013-10-14 00:37:00,67.5,59.3,30.13,East,101,4.0,6.0,75,0.00,,---,0.00,VWS V14.00,2013-10-14 05:37:00,
2013-10-14 00:42:00,67.4,59.6,30.13,East,101,2.0,6.0,76,0.00,,---,0.00,VWS V14.00,2013-10-14 05:42:00,
2013-10-14 00:47:00,67.2,59.4,30.13,East,101,5.0,7.0,76,0.00,,---,0.00,VWS V14.00,2013-10-14 05:47:00,
2013-10-14 00:52:00,67.1,59.3,30.13,East,101,3.0,7.0,76,0.00,,---,0.00,VWS V14.00,2013-10-14 05:52:00,
2013-10-14 00:57:00,66.9,59.1,30.13,East,101,5.0,7.0,76,0.00,,---,0.00,VWS V14.00,2013-10-14 05:57:00,
2013-10-14 01:02:00,66.8,59.4,30.12,East,100,6.0,10.0,77,0.00,,---,0.00,VWS V14.00,2013-10-14 06:02:00,
2013-10-14 01:07:00,66.6,59.2,30.12,East,101,4.0,9.0,77,0.00,,---,0.00,VWS V14.00,2013-10-14 06:07:00,
2013-10-14 01:12:00,66.5,59.1,30.12,East,96,5.0,10.0,77,0.00,,---,0.00,VWS V14.00,2013-10-14 06:12:00,
2013-10-14 01:17:00,66.4,59.0,30.12,East,96,4.0,11.0,77,0.00,,---,0.00,VWS V14.00,2013-10-14 06:17:00,
2013-10-14 01:22:00,66.3,58.9,30.12,East,100,6.0,11.0,77,0.00,,---,0.00,VWS V14.00,2013-10-14 06:22:00,
2013-10-14 01:27:00,66.3,59.2,30.12,East,99,6.0,9.0,78,0.00,,---,0.00,VWS V14.00,2013-10-14 06:27:00,
2013-10-14 01:32:00,66.2,59.2,30.12,East,99,7.0,10.0,78,0.00,,---,0.00,VWS V14.00,2013-10-14 06:32:00,
2013-10-14 01:37:00,66.1,59.0,30.12,East,98,4.0,10.0,78,0.00,,---,0.00,VWS V14.00,2013-10-14 06:37:00,
2013-10-14 01:42:00,66.0,59.0,30.13,ESE,103,8.0,14.0,78,0.00,,---,0.00,VWS V14.00,2013-10-14 06:42:00,
2013-10-14 01:47:00,65.9,58.9,30.12,East,101,7.0,12.0,78,0.00,,---,0.00,VWS V14.00,2013-10-14 06:47:00,
2013-10-14 01:52:00,65.8,58.8,30.13,ESE,103,7.0,11.0,78,0.00,,---,0.00,VWS V14.00,2013-10-14 06:52:00,
2013-10-14 01:57:00,65.7,58.7,30.13,ESE,105,6.0,10.0,78,0.00,,---,0.00,VWS V14.00,2013-10-14 06:57:00,
2013-10-14 02:02:00,65.6,58.6,30.13,ESE,105,5.0,11.0,78,0.00,,---,0.00,VWS V14.00,2013-10-14 07:02:00,
2013-10-14 02:07:00,65.4,58.7,30.13,ESE,106,5.0,10.0,79,0.00,,---,0.00,VWS V14.00,2013-10-14 07:07:00,
2013-10-14 02:12:00,65.2,58.5,30.13,ESE,106,6.0,9.0,79,0.00,,---,0.00,VWS V14.00,2013-10-14 07:12:00,
2013-10-14 02:17:00,65.1,58.4,30.13,ESE,107,5.0,9.0,79,0.00,,---,0.00,VWS V14.00,2013-10-14 07:17:00,
2013-10-14 02:22:00,65.0,58.3,30.13,ESE,107,6.0,6.0,79,0.00,,---,0.00,VWS V14.00,2013-10-14 07:22:00,
2013-10-14 02:27:00,64.8,58.1,30.12,ESE,108,4.0,10.0,79,0.00,,---,0.00,VWS V14.00,2013-10-14 07:27:00,
2013-10-14 02:32:00,64.7,58.4,30.12,ESE,108,5.0,7.0,80,0.00,,---,0.00,VWS V14.00,2013-10-14 07:32:00,
2013-10-14 02:37:00,64.6,58.3,30.11,ESE,108,5.0,11.0,80,0.00,,---,0.00,VWS V14.00,2013-10-14 07:37:00,
2013-10-14 02:42:00,64.5,58.2,30.11,ESE,106,5.0,10.0,80,0.00,,---,0.00,VWS V14.00,2013-10-14 07:42:00,
2013-10-14 02:47:00,64.4,58.1,30.11,ESE,103,6.0,11.0,80,0.00,,---,0.00,VWS V14.00,2013-10-14 07:47:00,
2013-10-14 02:52:00,64.3,58.0,30.11,ESE,109,11.0,12.0,80,0.00,,---,0.00,VWS V14.00,2013-10-14 07:52:00,
2013-10-14 02:57:00,64.3,57.7,30.11,ESE,107,7.0,13.0,79,0.00,,---,0.00,VWS V14.00,2013-10-14 07:57:00,
2013-10-14 03:02:00,64.2,57.6,30.11,ESE,108,7.0,12.0,79,0.00,,---,0.00,VWS V14.00,2013-10-14 08:02:00,
2013-10-14 03:07:00,64.2,57.6,30.11,ESE,107,9.0,12.0,79,0.00,,---,0.00,VWS V14.00,2013-10-14 08:07:00,
2013-10-14 03:12:00,64.2,57.6,30.10,ESE,108,8.0,12.0,79,0.00,,---,0.00,VWS V14.00,2013-10-14 08:12:00,
2013-10-14 03:17:00,64.2,57.6,30.10,ESE,107,8.0,11.0,79,0.00,,---,0.00,VWS V14.00,2013-10-14 08:17:00,
2013-10-14 03:22:00,64.2,57.6,30.09,ESE,106,9.0,11.0,79,0.00,,---,0.00,VWS V14.00,2013-10-14 08:22:00,
2013-10-14 03:27:00,64.2,57.6,30.09,ESE,104,7.0,13.0,79,0.00,,---,0.00,VWS V14.00,2013-10-14 08:27:00,
2013-10-14 03:32:00,64.1,57.5,30.09,ESE,103,7.0,13.0,79,0.00,,---,0.00,VWS V14.00,2013-10-14 08:32:00,
2013-10-14 03:37:00,64.0,57.4,30.09,ESE,109,8.0,13.0,79,0.00,,---,0.00,VWS V14.00,2013-10-14 08:37:00,
2013-10-14 03:42:00,64.0,57.0,30.08,ESE,103,7.0,11.0,78,0.00,,---,0.00,VWS V14.00,2013-10-14 08:42:00,
2013-10-14 03:47:00,64.0,57.0,30.08,East,101,7.0,15.0,78,0.00,,---,0.00,VWS V14.00,2013-10-14 08:47:00,
2013-10-14 03:52:00,64.0,57.0,30.08,ESE,105,11.0,16.0,78,0.00,,---,0.00,VWS V14.00,2013-10-14 08:52:00,
2013-10-14 03:57:00,64.0,57.0,30.08,ESE,110,14.0,17.0,78,0.00,,---,0.00,VWS V14.00,2013-10-14 08:57:00,
2013-10-14 04:02:00,64.0,57.0,30.08,East,95,11.0,17.0,78,0.00,,---,0.00,VWS V14.00,2013-10-14 09:02:00,
2013-10-14 04:07:00,64.0,56.7,30.08,ESE,111,9.0,14.0,77,0.00,,---,0.00,VWS V14.00,2013-10-14 09:07:00,
2013-10-14 04:12:00,63.9,56.9,30.08,East,98,10.0,15.0,78,0.00,,---,0.00,VWS V14.00,2013-10-14 09:12:00,
2013-10-14 04:17:00,63.9,56.6,30.08,ESE,105,11.0,19.0,77,0.00,,---,0.00,VWS V14.00,2013-10-14 09:17:00,
2013-10-14 04:22:00,63.9,56.6,30.08,ESE,112,12.0,16.0,77,0.00,,---,0.00,VWS V14.00,2013-10-14 09:22:00,
2013-10-14 04:27:00,63.9,56.6,30.08,ESE,109,10.0,17.0,77,0.00,,---,0.00,VWS V14.00,2013-10-14 09:27:00,
2013-10-14 04:32:00,63.8,56.5,30.08,ESE,116,8.0,17.0,77,0.00,,---,0.00,VWS V14.00,2013-10-14 09:32:00,
2013-10-14 04:37:00,63.8,56.5,30.08,ESE,104,10.0,15.0,77,0.00,,---,0.00,VWS V14.00,2013-10-14 09:37:00,
2013-10-14 04:42:00,63.7,56.4,30.08,ESE,104,6.0,15.0,77,0.00,,---,0.00,VWS V14.00,2013-10-14 09:42:00,
2013-10-14 04:47:00,63.6,56.3,30.08,ESE,116,9.0,14.0,77,0.00,,---,0.00,VWS V14.00,2013-10-14 09:47:00,
2013-10-14 04:52:00,63.6,56.3,30.08,ESE,108,5.0,12.0,77,0.00,,---,0.00,VWS V14.00,2013-10-14 09:52:00,
2013-10-14 04:57:00,63.5,55.8,30.08,ESE,110,9.0,15.0,76,0.00,,---,0.00,VWS V14.00,2013-10-14 09:57:00,
2013-10-14 05:02:00,63.5,55.8,30.08,ESE,107,10.0,16.0,76,0.00,,---,0.00,VWS V14.00,2013-10-14 10:02:00,
2013-10-14 05:07:00,63.4,55.7,30.08,ESE,107,10.0,13.0,76,0.00,,---,0.00,VWS V14.00,2013-10-14 10:07:00,
2013-10-14 05:12:00,63.4,55.3,30.07,East,101,13.0,14.0,75,0.00,,---,0.00,VWS V14.00,2013-10-14 10:12:00,
2013-10-14 05:17:00,63.3,55.2,30.07,ESE,109,6.0,13.0,75,0.00,,---,0.00,VWS V14.00,2013-10-14 10:17:00,
2013-10-14 05:22:00,63.2,55.2,30.07,ESE,105,11.0,14.0,75,0.00,,---,0.00,VWS V14.00,2013-10-14 10:22:00,
2013-10-14 05:27:00,63.2,55.2,30.07,ESE,117,7.0,13.0,75,0.00,,---,0.00,VWS V14.00,2013-10-14 10:27:00,
2013-10-14 05:32:00,63.2,54.8,30.07,ESE,113,7.0,11.0,74,0.00,,---,0.00,VWS V14.00,2013-10-14 10:32:00,
2013-10-14 05:37:00,63.2,54.8,30.07,ESE,109,10.0,10.0,74,0.00,,---,0.00,VWS V14.00,2013-10-14 10:37:00,
2013-10-14 05:42:00,63.2,54.8,30.07,ESE,107,9.0,12.0,74,0.00,,---,0.00,VWS V14.00,2013-10-14 10:42:00,
2013-10-14 05:47:00,63.2,54.4,30.07,ESE,117,7.0,13.0,73,0.00,,---,0.00,VWS V14.00,2013-10-14 10:47:00,
2013-10-14 05:52:00,63.2,54.4,30.07,ESE,116,6.0,10.0,73,0.00,,---,0.00,VWS V14.00,2013-10-14 10:52:00,
2013-10-14 05:57:00,63.2,54.4,30.07,ESE,116,6.0,10.0,73,0.00,,---,0.00,VWS V14.00,2013-10-14 10:57:00,
2013-10-14 06:02:00,63.2,54.4,30.08,ESE,103,10.0,14.0,73,0.00,,---,0.00,VWS V14.00,2013-10-14 11:02:00,
2013-10-14 06:07:00,63.2,54.0,30.08,ESE,117,10.0,13.0,72,0.00,,---,0.00,VWS V14.00,2013-10-14 11:07:00,
2013-10-14 06:12:00,63.2,54.0,30.08,ESE,115,5.0,13.0,72,0.00,,---,0.00,VWS V14.00,2013-10-14 11:12:00,
2013-10-14 06:17:00,63.2,54.0,30.08,ESE,109,6.0,13.0,72,0.00,,---,0.00,VWS V14.00,2013-10-14 11:17:00,
2013-10-14 06:22:00,63.2,54.0,30.08,ESE,116,8.0,12.0,72,0.00,,---,0.00,VWS V14.00,2013-10-14 11:22:00,
2013-10-14 06:27:00,63.2,54.0,30.08,ESE,113,6.0,12.0,72,0.00,,---,0.00,VWS V14.00,2013-10-14 11:27:00,
2013-10-14 06:32:00,63.2,54.4,30.08,ESE,111,4.0,11.0,73,0.00,,---,0.00,VWS V14.00,2013-10-14 11:32:00,
2013-10-14 06:37:00,63.1,53.9,30.08,ESE,113,6.0,15.0,72,0.00,,---,0.00,VWS V14.00,2013-10-14 11:37:00,
2013-10-14 06:42:00,62.9,54.1,30.08,ESE,113,6.0,12.0,73,0.00,,---,0.00,VWS V14.00,2013-10-14 11:42:00,
2013-10-14 06:47:00,62.8,54.0,30.09,ESE,112,9.0,12.0,73,0.00,,---,0.00,VWS V14.00,2013-10-14 11:47:00,
2013-10-14 06:52:00,62.7,54.3,30.08,ESE,110,7.0,11.0,74,0.00,,---,0.00,VWS V14.00,2013-10-14 11:52:00,
2013-10-14 06:57:00,62.6,54.2,30.07,ESE,105,9.0,13.0,74,0.00,,---,0.00,VWS V14.00,2013-10-14 11:57:00,
2013-10-14 07:02:00,62.4,54.0,30.07,ESE,107,12.0,17.0,74,0.00,,---,0.00,VWS V14.00,2013-10-14 12:02:00,
2013-10-14 07:07:00,62.3,53.9,30.07,ESE,115,6.0,17.0,74,0.00,,---,0.00,VWS V14.00,2013-10-14 12:07:00,
2013-10-14 07:11:00,62.2,53.8,30.07,ESE,111,8.0,14.0,74,0.00,,---,0.00,VWS V14.00,2013-10-14 12:11:00,
2013-10-14 07:16:00,62.1,54.1,30.07,ESE,110,7.0,12.0,75,0.00,,---,0.00,VWS V14.00,2013-10-14 12:16:00,
2013-10-14 07:21:00,61.8,54.2,30.07,ESE,111,6.0,14.0,76,0.00,,---,0.00,VWS V14.00,2013-10-14 12:21:00,
2013-10-14 07:26:00,61.6,54.0,30.07,ESE,112,6.0,10.0,76,0.00,,---,0.00,VWS V14.00,2013-10-14 12:26:00,
2013-10-14 07:31:00,61.4,53.8,30.07,ESE,111,5.0,11.0,76,0.00,,---,0.00,VWS V14.00,2013-10-14 12:31:00,
2013-10-14 07:36:00,61.3,53.7,30.07,ESE,113,9.0,10.0,76,0.00,,---,0.00,VWS V14.00,2013-10-14 12:36:00,
2013-10-14 07:41:00,61.3,53.7,30.07,ESE,111,5.0,12.0,76,0.00,,---,0.00,VWS V14.00,2013-10-14 12:41:00,
2013-10-14 07:46:00,61.3,53.7,30.06,ESE,106,9.0,12.0,76,0.00,,---,0.00,VWS V14.00,2013-10-14 12:46:00,
2013-10-14 07:51:00,61.3,53.3,30.06,ESE,107,9.0,10.0,75,0.00,,---,0.00,VWS V14.00,2013-10-14 12:51:00,
2013-10-14 07:57:00,61.4,53.4,30.06,ESE,107,12.0,13.0,75,0.00,,---,0.00,VWS V14.00,2013-10-14 12:57:00,
2013-10-14 08:02:00,61.4,53.4,30.07,ESE,106,7.0,11.0,75,0.00,,---,0.00,VWS V14.00,2013-10-14 13:02:00,
2013-10-14 08:07:00,61.3,53.0,30.07,ESE,105,4.0,12.0,74,0.00,,---,0.00,VWS V14.00,2013-10-14 13:07:00,
2013-10-14 08:12:00,61.3,53.3,30.07,ESE,105,7.0,9.0,75,0.00,,---,0.00,VWS V14.00,2013-10-14 13:12:00,
2013-10-14 08:17:00,61.3,53.0,30.07,ESE,107,7.0,11.0,74,0.00,,---,0.00,VWS V14.00,2013-10-14 13:17:00,
2013-10-14 08:22:00,61.3,53.0,30.07,ESE,117,6.0,10.0,74,0.00,,---,0.00,VWS V14.00,2013-10-14 13:22:00,
2013-10-14 08:27:00,61.3,53.3,30.07,ESE,115,7.0,8.0,75,0.00,,---,0.00,VWS V14.00,2013-10-14 13:27:00,
2013-10-14 08:32:00,61.2,53.2,30.07,ESE,112,6.0,11.0,75,0.00,,---,0.00,VWS V14.00,2013-10-14 13:32:00,
2013-10-14 08:37:00,61.1,53.1,30.07,ESE,117,8.0,11.0,75,0.00,,---,0.00,VWS V14.00,2013-10-14 13:37:00,
2013-10-14 08:42:00,61.0,53.0,30.07,ESE,111,4.0,12.0,75,0.00,,---,0.00,VWS V14.00,2013-10-14 13:42:00,
2013-10-14 08:46:00,60.7,53.5,30.07,ESE,112,9.0,15.0,77,0.00,,---,0.00,VWS V14.00,2013-10-14 13:46:00,
2013-10-14 08:51:00,60.4,53.2,30.07,ESE,117,6.0,12.0,77,0.00,,---,0.00,VWS V14.00,2013-10-14 13:51:00,
2013-10-14 08:56:00,60.2,53.3,30.07,ESE,113,11.0,11.0,78,0.00,,---,0.00,VWS V14.00,2013-10-14 13:56:00,
2013-10-14 09:02:00,60.0,53.1,30.07,ESE,120,9.0,14.0,78,0.00,,---,0.01,VWS V14.00,2013-10-14 14:02:00,
2013-10-14 09:07:00,59.7,53.2,30.07,ESE,113,7.0,13.0,79,0.00,,---,0.01,VWS V14.00,2013-10-14 14:07:00,
2013-10-14 09:12:00,59.3,53.1,30.07,ESE,114,6.0,13.0,80,0.10,,---,0.02,VWS V14.00,2013-10-14 14:12:00,
2013-10-14 09:17:00,59.0,53.2,30.07,ESE,111,10.0,12.0,81,0.07,,---,0.03,VWS V14.00,2013-10-14 14:17:00,
2013-10-14 09:22:00,59.0,53.8,30.07,ESE,112,4.0,10.0,83,0.07,,---,0.03,VWS V14.00,2013-10-14 14:22:00,
2013-10-14 09:27:00,58.7,53.6,30.07,ESE,114,6.0,10.0,83,0.06,,---,0.03,VWS V14.00,2013-10-14 14:27:00,
2013-10-14 09:32:00,58.4,53.6,30.07,ESE,118,7.0,12.0,84,0.19,,---,0.06,VWS V14.00,2013-10-14 14:32:00,
2013-10-14 09:37:00,58.2,53.7,30.06,ESE,112,8.0,12.0,85,0.57,,---,0.13,VWS V14.00,2013-10-14 14:37:00,
2013-10-14 09:42:00,57.8,53.7,30.06,ESE,113,5.0,12.0,86,0.13,,---,0.14,VWS V14.00,2013-10-14 14:42:00,
2013-10-14 09:47:00,57.7,53.5,30.06,ESE,123,5.0,12.0,86,0.11,,---,0.14,VWS V14.00,2013-10-14 14:47:00,
2013-10-14 09:52:00,57.7,53.9,30.06,SE,124,5.0,13.0,87,0.06,,---,0.15,VWS V14.00,2013-10-14 14:52:00,
2013-10-14 09:57:00,57.7,53.9,30.06,ESE,123,5.0,12.0,87,0.06,,---,0.15,VWS V14.00,2013-10-14 14:57:00,
2013-10-14 10:02:00,57.7,54.2,30.06,SE,125,11.0,11.0,88,0.08,,---,0.16,VWS V14.00,2013-10-14 15:02:00,
2013-10-14 10:07:00,57.7,54.2,30.06,SE,127,7.0,10.0,88,0.07,,---,0.16,VWS V14.00,2013-10-14 15:07:00,
2013-10-14 10:12:00,57.7,54.2,30.06,SE,124,11.0,11.0,88,0.04,,---,0.16,VWS V14.00,2013-10-14 15:12:00,
2013-10-14 10:17:00,57.7,54.2,30.06,ESE,117,7.0,11.0,88,0.00,,---,0.16,VWS V14.00,2013-10-14 15:17:00,
2013-10-14 10:22:00,57.8,54.3,30.05,ESE,116,10.0,11.0,88,0.00,,---,0.17,VWS V14.00,2013-10-14 15:22:00,
2013-10-14 10:27:00,57.8,54.3,30.05,ESE,117,4.0,9.0,88,0.00,,---,0.17,VWS V14.00,2013-10-14 15:27:00,
2013-10-14 10:32:00,57.8,54.3,30.05,ESE,123,7.0,11.0,88,0.00,,---,0.17,VWS V14.00,2013-10-14 15:32:00,
2013-10-14 10:37:00,57.9,54.7,30.05,ESE,119,5.0,10.0,89,0.00,,---,0.17,VWS V14.00,2013-10-14 15:37:00,
2013-10-14 10:42:00,58.0,54.8,30.04,ESE,115,6.0,10.0,89,0.00,,---,0.17,VWS V14.00,2013-10-14 15:42:00,
2013-10-14 10:47:00,58.0,54.8,30.04,ESE,111,6.0,11.0,89,0.00,,---,0.18,VWS V14.00,2013-10-14 15:47:00,
2013-10-14 10:52:00,58.1,54.9,30.04,ESE,117,9.0,12.0,89,0.00,,---,0.18,VWS V14.00,2013-10-14 15:52:00,
2013-10-14 10:57:00,58.2,55.0,30.04,ESE,115,6.0,9.0,89,0.00,,---,0.18,VWS V14.00,2013-10-14 15:57:00,
2013-10-14 11:02:00,58.2,55.0,30.04,ESE,113,4.0,12.0,89,0.00,,---,0.18,VWS V14.00,2013-10-14 16:02:00,
2013-10-14 11:07:00,58.3,55.1,30.04,ESE,114,5.0,10.0,89,0.00,,---,0.19,VWS V14.00,2013-10-14 16:07:00,
2013-10-14 11:12:00,58.3,55.1,30.04,South,170,7.0,10.0,89,0.00,,---,0.19,VWS V14.00,2013-10-14 16:12:00,
2013-10-14 11:17:00,58.4,55.2,30.04,ESE,122,6.0,10.0,89,0.00,,---,0.19,VWS V14.00,2013-10-14 16:17:00,
2013-10-14 11:22:00,58.5,55.3,30.04,ESE,120,9.0,12.0,89,0.00,,---,0.20,VWS V14.00,2013-10-14 16:22:00,
2013-10-14 11:27:00,58.6,55.4,30.03,ESE,115,8.0,11.0,89,0.00,,---,0.20,VWS V14.00,2013-10-14 16:27:00,
2013-10-14 11:32:00,58.6,55.4,30.04,ESE,118,7.0,10.0,89,0.08,,---,0.21,VWS V14.00,2013-10-14 16:32:00,
2013-10-14 11:37:00,58.7,55.5,30.04,ESE,119,9.0,11.0,89,0.11,,---,0.22,VWS V14.00,2013-10-14 16:37:00,
2013-10-14 11:42:00,58.7,55.5,30.04,ESE,115,4.0,13.0,89,0.09,,---,0.22,VWS V14.00,2013-10-14 16:42:00,
2013-10-14 11:47:00,58.9,56.0,30.04,ESE,115,11.0,11.0,90,0.08,,---,0.23,VWS V14.00,2013-10-14 16:47:00,
2013-10-14 11:52:00,59.0,56.7,30.03,SE,126,6.0,13.0,92,0.06,,---,0.23,VWS V14.00,2013-10-14 16:52:00,
2013-10-14 11:57:00,59.0,56.1,30.03,ESE,117,4.0,12.0,90,0.04,,---,0.23,VWS V14.00,2013-10-14 16:57:00,
2013-10-14 12:02:00,59.0,56.1,30.02,ESE,113,6.0,10.0,90,0.00,,---,0.24,VWS V14.00,2013-10-14 17:02:00,
2013-10-14 12:07:00,59.0,56.1,30.02,ESE,119,7.0,11.0,90,0.00,,---,0.24,VWS V14.00,2013-10-14 17:07:00,
2013-10-14 12:12:00,59.0,56.1,30.02,ESE,107,8.0,11.0,90,0.00,,---,0.25,VWS V14.00,2013-10-14 17:12:00,
2013-10-14 12:16:00,59.0,56.4,30.01,ESE,117,10.0,15.0,91,0.05,,---,0.25,VWS V14.00,2013-10-14 17:16:00,
2013-10-14 12:21:00,59.0,56.4,30.01,ESE,109,8.0,13.0,91,0.06,,---,0.26,VWS V14.00,2013-10-14 17:21:00,
2013-10-14 12:26:00,59.0,56.4,30.01,ESE,118,5.0,11.0,91,0.15,,---,0.27,VWS V14.00,2013-10-14 17:26:00,
2013-10-14 12:31:00,59.1,56.5,30.01,ESE,111,6.0,11.0,91,0.10,,---,0.28,VWS V14.00,2013-10-14 17:31:00,
2013-10-14 12:36:00,59.3,56.7,30.01,ESE,105,5.0,10.0,91,0.10,,---,0.29,VWS V14.00,2013-10-14 17:36:00,
2013-10-14 12:41:00,59.4,56.8,30.00,ESE,107,7.0,12.0,91,0.11,,---,0.30,VWS V14.00,2013-10-14 17:41:00,
2013-10-14 12:46:00,59.4,56.8,30.00,SE,134,13.0,14.0,91,0.12,,---,0.31,VWS V14.00,2013-10-14 17:46:00,
2013-10-14 12:51:00,59.4,57.1,30.00,ESE,106,7.0,11.0,92,0.12,,---,0.31,VWS V14.00,2013-10-14 17:51:00,
2013-10-14 12:56:00,59.4,57.1,30.00,ESE,112,5.0,11.0,92,0.10,,---,0.32,VWS V14.00,2013-10-14 17:56:00,
2013-10-14 13:01:00,59.5,57.2,30.00,East,98,5.0,12.0,92,0.13,,---,0.33,VWS V14.00,2013-10-14 18:01:00,
2013-10-14 13:06:00,59.5,57.2,30.00,ESE,104,5.0,9.0,92,0.10,,---,0.34,VWS V14.00,2013-10-14 18:06:00,
2013-10-14 13:11:00,59.6,57.3,29.99,ESE,105,3.0,10.0,92,0.13,,---,0.35,VWS V14.00,2013-10-14 18:11:00,
2013-10-14 13:16:00,59.6,57.3,29.99,ESE,105,4.0,10.0,92,0.08,,---,0.36,VWS V14.00,2013-10-14 18:16:00,
2013-10-14 13:21:00,59.7,57.4,29.98,ESE,109,6.0,11.0,92,0.08,,---,0.36,VWS V14.00,2013-10-14 18:21:00,
2013-10-14 13:26:00,59.7,57.4,29.98,ESE,105,8.0,12.0,92,0.06,,---,0.37,VWS V14.00,2013-10-14 18:26:00,
2013-10-14 13:31:00,59.8,57.5,29.98,ESE,109,5.0,10.0,92,0.06,,---,0.37,VWS V14.00,2013-10-14 18:31:00,
2013-10-14 13:36:00,59.9,57.6,29.98,ESE,109,2.0,9.0,92,0.06,,---,0.38,VWS V14.00,2013-10-14 18:36:00,
2013-10-14 13:41:00,60.0,57.7,29.98,ESE,109,7.0,8.0,92,0.26,,---,0.40,VWS V14.00,2013-10-14 18:41:00,
2013-10-14 13:46:00,60.1,57.8,29.97,ESE,123,2.0,10.0,92,0.17,,---,0.42,VWS V14.00,2013-10-14 18:46:00,
2013-10-14 13:51:00,60.3,58.3,29.97,ESE,123,5.0,6.0,93,0.18,,---,0.44,VWS V14.00,2013-10-14 18:51:00,
2013-10-14 13:56:00,60.4,58.4,29.97,ESE,123,3.0,7.0,93,0.19,,---,0.45,VWS V14.00,2013-10-14 18:56:00,
2013-10-14 14:01:00,60.5,58.5,29.96,SE,124,4.0,6.0,93,0.12,,---,0.46,VWS V14.00,2013-10-14 19:01:00,
2013-10-14 14:06:00,60.5,58.5,29.96,SE,124,0.0,5.0,93,0.24,,---,0.48,VWS V14.00,2013-10-14 19:06:00,
2013-10-14 14:11:00,60.6,58.6,29.95,SE,124,2.0,3.0,93,0.44,,---,0.51,VWS V14.00,2013-10-14 19:11:00,
2013-10-14 14:16:00,60.7,58.7,29.95,SE,124,0.0,5.0,93,0.31,,---,0.54,VWS V14.00,2013-10-14 19:16:00,
2013-10-14 14:21:00,60.8,58.8,29.95,SE,124,0.0,4.0,93,0.22,,---,0.56,VWS V14.00,2013-10-14 19:21:00,
2013-10-14 14:26:00,60.8,58.8,29.94,SE,124,4.0,7.0,93,0.56,,---,0.59,VWS V14.00,2013-10-14 19:26:00,
2013-10-14 14:31:00,60.9,58.9,29.94,ESE,117,7.0,11.0,93,0.40,,---,0.64,VWS V14.00,2013-10-14 19:31:00,
2013-10-14 14:36:00,61.0,59.0,29.93,ESE,108,9.0,11.0,93,0.51,,---,0.67,VWS V14.00,2013-10-14 19:36:00,
2013-10-14 14:41:00,61.0,59.0,29.93,ESE,107,7.0,11.0,93,0.30,,---,0.69,VWS V14.00,2013-10-14 19:41:00,
2013-10-14 14:46:00,61.0,59.0,29.93,ESE,104,4.0,10.0,93,0.20,,---,0.71,VWS V14.00,2013-10-14 19:46:00,
2013-10-14 14:51:00,61.0,59.0,29.93,ESE,104,5.0,10.0,93,0.15,,---,0.72,VWS V14.00,2013-10-14 19:51:00,
2013-10-14 14:56:00,61.1,59.1,29.92,ESE,104,5.0,9.0,93,0.19,,---,0.74,VWS V14.00,2013-10-14 19:56:00,
2013-10-14 15:01:00,61.2,59.2,29.92,ESE,104,3.0,7.0,93,0.21,,---,0.75,VWS V14.00,2013-10-14 20:01:00,
2013-10-14 15:06:00,61.3,59.6,29.92,ESE,107,4.0,8.0,94,0.30,,---,0.78,VWS V14.00,2013-10-14 20:06:00,
2013-10-14 15:11:00,61.4,59.7,29.92,ESE,112,8.0,14.0,94,0.32,,---,0.81,VWS V14.00,2013-10-14 20:11:00,
2013-10-14 15:16:00,61.4,59.7,29.91,ESE,108,6.0,12.0,94,0.20,,---,0.82,VWS V14.00,2013-10-14 20:16:00,
2013-10-14 15:21:00,61.4,59.7,29.91,ESE,117,9.0,15.0,94,0.16,,---,0.84,VWS V14.00,2013-10-14 20:21:00,
2013-10-14 15:26:00,61.4,59.7,29.91,ESE,108,4.0,13.0,94,0.14,,---,0.85,VWS V14.00,2013-10-14 20:26:00,
2013-10-14 15:31:00,61.5,59.8,29.91,ESE,117,7.0,13.0,94,0.14,,---,0.86,VWS V14.00,2013-10-14 20:31:00,
2013-10-14 15:36:00,61.5,59.8,29.91,ESE,110,5.0,12.0,94,0.32,,---,0.89,VWS V14.00,2013-10-14 20:36:00,
2013-10-14 15:41:00,61.5,59.8,29.91,ESE,123,9.0,13.0,94,0.14,,---,0.89,VWS V14.00,2013-10-14 20:41:00,
2013-10-14 15:46:00,61.5,59.8,29.91,ESE,120,5.0,10.0,94,0.12,,---,0.90,VWS V14.00,2013-10-14 20:46:00,
2013-10-14 15:51:00,61.6,59.9,29.91,ESE,121,3.0,10.0,94,0.09,,---,0.90,VWS V14.00,2013-10-14 20:51:00,
2013-10-14 15:56:00,61.8,60.1,29.91,ESE,122,3.0,11.0,94,0.13,,---,0.92,VWS V14.00,2013-10-14 20:56:00,
2013-10-14 16:01:00,61.9,60.2,29.91,SE,124,5.0,10.0,94,0.12,,---,0.92,VWS V14.00,2013-10-14 21:01:00,
2013-10-14 16:02:00,61.9,60.2,29.91,SE,124,5.0,7.0,94,0.10,,---,0.93,VWS V14.00,2013-10-14 21:02:00,
2013-10-14 16:07:00,62.0,60.3,29.90,SE,124,3.0,7.0,94,0.09,,---,0.93,VWS V14.00,2013-10-14 21:07:00,
2013-10-14 16:12:00,62.1,60.4,29.90,ESE,120,7.0,7.0,94,0.12,,---,0.94,VWS V14.00,2013-10-14 21:12:00,
2013-10-14 16:17:00,62.3,60.6,29.90,ESE,120,7.0,7.0,94,0.09,,---,0.95,VWS V14.00,2013-10-14 21:17:00,
2013-10-14 16:22:00,62.4,60.7,29.90,SE,125,9.0,9.0,94,0.07,,---,0.95,VWS V14.00,2013-10-14 21:22:00,
2013-10-14 16:27:00,62.7,61.0,29.90,ESE,119,5.0,7.0,94,0.06,,---,0.96,VWS V14.00,2013-10-14 21:27:00,
2013-10-14 16:32:00,62.8,61.0,29.90,SE,140,5.0,7.0,94,0.06,,---,0.96,VWS V14.00,2013-10-14 21:32:00,
2013-10-14 16:37:00,63.0,61.2,29.89,SE,128,8.0,8.0,94,0.05,,---,0.97,VWS V14.00,2013-10-14 21:37:00,
2013-10-14 16:42:00,63.1,61.3,29.89,SE,130,5.0,6.0,94,0.05,,---,0.97,VWS V14.00,2013-10-14 21:42:00,
2013-10-14 16:47:00,63.3,61.5,29.89,SE,138,7.0,13.0,94,0.05,,---,0.97,VWS V14.00,2013-10-14 21:47:00,
2013-10-14 16:52:00,63.4,61.7,29.89,SE,130,9.0,12.0,94,0.04,,---,0.97,VWS V14.00,2013-10-14 21:52:00,
2013-10-14 16:57:00,63.5,61.8,29.89,SE,131,5.0,10.0,94,0.00,,---,0.97,VWS V14.00,2013-10-14 21:57:00,
2013-10-14 17:02:00,63.6,61.8,29.89,ESE,119,9.0,14.0,94,0.00,,---,0.97,VWS V14.00,2013-10-14 22:02:00,
2013-10-14 17:07:00,63.7,62.0,29.89,SE,125,8.0,9.0,94,0.00,,---,0.97,VWS V14.00,2013-10-14 22:07:00,
2013-10-14 17:12:00,63.8,62.0,29.89,SE,134,10.0,13.0,94,0.00,,---,0.97,VWS V14.00,2013-10-14 22:12:00,
2013-10-14 17:17:00,63.9,62.1,29.89,SE,131,9.0,11.0,94,0.00,,---,0.97,VWS V14.00,2013-10-14 22:17:00,
2013-10-14 17:22:00,64.0,62.2,29.89,SE,142,10.0,10.0,94,0.00,,---,0.97,VWS V14.00,2013-10-14 22:22:00,
2013-10-14 17:27:00,64.1,62.3,29.89,SE,130,4.0,4.0,94,0.00,,---,0.97,VWS V14.00,2013-10-14 22:27:00,
2013-10-14 17:32:00,64.2,62.4,29.89,SE,138,12.0,13.0,94,0.00,,---,0.98,VWS V14.00,2013-10-14 22:32:00,
2013-10-14 17:37:00,64.3,62.5,29.89,SE,138,9.0,10.0,94,0.00,,---,0.98,VWS V14.00,2013-10-14 22:37:00,
2013-10-14 17:42:00,64.4,62.6,29.89,SE,140,7.0,11.0,94,0.00,,---,0.98,VWS V14.00,2013-10-14 22:42:00,
2013-10-14 17:47:00,64.4,62.6,29.89,SE,140,7.0,9.0,94,0.00,,---,0.98,VWS V14.00,2013-10-14 22:47:00,
2013-10-14 17:52:00,64.5,62.7,29.89,SE,126,9.0,10.0,94,0.00,,---,0.98,VWS V14.00,2013-10-14 22:52:00,
2013-10-14 17:57:00,64.5,62.7,29.89,SE,142,7.0,12.0,94,0.00,,---,0.98,VWS V14.00,2013-10-14 22:57:00,
2013-10-14 18:02:00,64.6,62.8,29.89,SE,136,9.0,10.0,94,0.00,,---,0.98,VWS V14.00,2013-10-14 23:02:00,
2013-10-14 18:07:00,64.7,62.9,29.89,SE,137,11.0,14.0,94,0.00,,---,0.98,VWS V14.00,2013-10-14 23:07:00,
2013-10-14 18:12:00,64.7,62.9,29.89,SE,139,9.0,9.0,94,0.00,,---,0.98,VWS V14.00,2013-10-14 23:12:00,
2013-10-14 18:17:00,64.8,63.0,29.89,SE,138,6.0,10.0,94,0.00,,---,0.98,VWS V14.00,2013-10-14 23:17:00,
2013-10-14 18:22:00,64.8,63.0,29.89,SE,141,8.0,12.0,94,0.00,,---,0.98,VWS V14.00,2013-10-14 23:22:00,
2013-10-14 18:27:00,64.8,63.0,29.89,SE,138,12.0,14.0,94,0.00,,---,0.98,VWS V14.00,2013-10-14 23:27:00,
2013-10-14 18:32:00,64.8,63.0,29.89,SE,142,5.0,11.0,94,0.00,,---,0.98,VWS V14.00,2013-10-14 23:32:00,
2013-10-14 18:37:00,64.8,63.0,29.89,SE,144,7.0,12.0,94,0.00,,---,0.98,VWS V14.00,2013-10-14 23:37:00,
2013-10-14 18:42:00,64.8,63.0,29.89,SSE,153,6.0,13.0,94,0.00,,---,0.98,VWS V14.00,2013-10-14 23:42:00,
2013-10-14 18:47:00,64.7,62.9,29.89,SE,139,5.0,6.0,94,0.00,,---,0.98,VWS V14.00,2013-10-14 23:47:00,
2013-10-14 18:52:00,64.8,63.0,29.89,SE,138,8.0,9.0,94,0.00,,---,0.98,VWS V14.00,2013-10-14 23:52:00,
2013-10-14 18:57:00,64.7,62.9,29.89,SE,130,10.0,12.0,94,0.00,,---,0.98,VWS V14.00,2013-10-14 23:57:00,
2013-10-14 19:02:00,64.8,63.0,29.89,SSE,155,6.0,16.0,94,0.00,,---,0.98,VWS V14.00,2013-10-15 00:02:00,
2013-10-14 19:07:00,64.8,63.0,29.89,SE,144,8.0,11.0,94,0.00,,---,0.98,VWS V14.00,2013-10-15 00:07:00,
2013-10-14 19:12:00,64.8,63.0,29.89,SE,142,7.0,15.0,94,0.00,,---,0.98,VWS V14.00,2013-10-15 00:12:00,
2013-10-14 19:17:00,64.8,63.0,29.89,SE,144,4.0,10.0,94,0.00,,---,0.98,VWS V14.00,2013-10-15 00:17:00,
2013-10-14 19:22:00,64.8,63.0,29.89,SE,140,6.0,6.0,94,0.00,,---,0.98,VWS V14.00,2013-10-15 00:22:00,
2013-10-14 19:27:00,64.8,63.0,29.88,SE,140,12.0,13.0,94,0.00,,---,0.98,VWS V14.00,2013-10-15 00:27:00,
2013-10-14 19:32:00,64.8,63.0,29.88,SE,144,8.0,9.0,94,0.00,,---,0.98,VWS V14.00,2013-10-15 00:32:00,
2013-10-14 19:37:00,64.8,63.0,29.88,SE,140,12.0,12.0,94,0.00,,---,0.98,VWS V14.00,2013-10-15 00:37:00,
2013-10-14 19:42:00,64.8,63.0,29.88,SSE,151,9.0,9.0,94,0.00,,---,0.98,VWS V14.00,2013-10-15 00:42:00,
2013-10-14 19:47:00,64.8,63.0,29.88,SSE,160,7.0,7.0,94,0.00,,---,0.98,VWS V14.00,2013-10-15 00:47:00,
2013-10-14 19:52:00,64.8,63.0,29.88,SSE,155,4.0,6.0,94,0.00,,---,0.98,VWS V14.00,2013-10-15 00:52:00,
2013-10-14 19:57:00,64.7,62.9,29.88,SSE,162,9.0,10.0,94,0.00,,---,0.98,VWS V14.00,2013-10-15 00:57:00,
2013-10-14 20:02:00,64.7,62.9,29.88,SE,134,7.0,7.0,94,0.00,,---,0.98,VWS V14.00,2013-10-15 01:02:00,
2013-10-14 20:07:00,64.7,62.9,29.88,SSE,161,10.0,15.0,94,0.00,,---,0.98,VWS V14.00,2013-10-15 01:07:00,
2013-10-14 20:12:00,64.6,62.8,29.88,SE,146,9.0,14.0,94,0.00,,---,0.98,VWS V14.00,2013-10-15 01:12:00,
2013-10-14 20:17:00,64.6,62.8,29.88,SE,139,13.0,14.0,94,0.00,,---,0.98,VWS V14.00,2013-10-15 01:17:00,
2013-10-14 20:22:00,64.6,62.8,29.88,SSE,152,10.0,11.0,94,0.00,,---,0.98,VWS V14.00,2013-10-15 01:22:00,
2013-10-14 20:27:00,64.6,62.8,29.88,SE,146,8.0,11.0,94,0.00,,---,0.98,VWS V14.00,2013-10-15 01:27:00,
2013-10-14 20:32:00,64.6,62.8,29.88,SE,139,13.0,13.0,94,0.00,,---,0.98,VWS V14.00,2013-10-15 01:32:00,
2013-10-14 20:37:00,64.6,62.8,29.88,SSE,148,4.0,9.0,94,0.00,,---,0.98,VWS V14.00,2013-10-15 01:37:00,
2013-10-14 20:42:00,64.6,62.8,29.88,SSE,151,9.0,10.0,94,0.00,,---,0.98,VWS V14.00,2013-10-15 01:42:00,
2013-10-14 20:47:00,64.6,62.5,29.89,SE,127,15.0,16.0,93,0.00,,---,0.98,VWS V14.00,2013-10-15 01:47:00,
2013-10-14 20:52:00,64.6,62.5,29.88,SE,130,11.0,12.0,93,0.00,,---,0.98,VWS V14.00,2013-10-15 01:52:00,
2013-10-14 20:57:00,64.6,62.5,29.89,SE,139,6.0,11.0,93,0.00,,---,0.98,VWS V14.00,2013-10-15 01:57:00,
2013-10-14 21:02:00,64.6,62.5,29.88,SE,139,7.0,7.0,93,0.00,,---,0.98,VWS V14.00,2013-10-15 02:02:00,
2013-10-14 21:07:00,64.6,62.5,29.88,SSE,153,11.0,14.0,93,0.00,,---,0.98,VWS V14.00,2013-10-15 02:07:00,
2013-10-14 21:12:00,64.6,62.5,29.89,SE,138,6.0,12.0,93,0.00,,---,0.98,VWS V14.00,2013-10-15 02:12:00,
2013-10-14 21:17:00,64.6,62.5,29.89,SE,143,14.0,16.0,93,0.00,,---,0.98,VWS V14.00,2013-10-15 02:17:00,
2013-10-14 21:22:00,64.6,62.5,29.89,SE,132,13.0,13.0,93,0.00,,---,0.98,VWS V14.00,2013-10-15 02:22:00,
2013-10-14 21:27:00,64.6,62.5,29.89,SSE,147,9.0,13.0,93,0.00,,---,0.98,VWS V14.00,2013-10-15 02:27:00,
2013-10-14 21:32:00,64.6,62.5,29.89,SE,138,14.0,15.0,93,0.00,,---,0.99,VWS V14.00,2013-10-15 02:32:00,
2013-10-14 21:37:00,64.5,62.4,29.89,SSE,150,4.0,9.0,93,0.00,,---,0.99,VWS V14.00,2013-10-15 02:37:00,
2013-10-14 21:42:00,64.5,62.4,29.89,SSE,161,10.0,13.0,93,0.00,,---,0.99,VWS V14.00,2013-10-15 02:42:00,
2013-10-14 21:47:00,64.5,62.4,29.89,SE,146,9.0,12.0,93,0.00,,---,0.99,VWS V14.00,2013-10-15 02:47:00,
2013-10-14 21:52:00,64.5,62.4,29.90,SE,144,7.0,7.0,93,0.00,,---,0.99,VWS V14.00,2013-10-15 02:52:00,
2013-10-14 21:57:00,64.5,62.4,29.90,SSE,153,8.0,10.0,93,0.00,,---,0.99,VWS V14.00,2013-10-15 02:57:00,
2013-10-14 22:02:00,64.5,62.4,29.90,SSE,160,9.0,11.0,93,0.00,,---,0.99,VWS V14.00,2013-10-15 03:02:00,
2013-10-14 22:07:00,64.5,62.4,29.89,SSE,153,8.0,10.0,93,0.00,,---,0.99,VWS V14.00,2013-10-15 03:07:00,
2013-10-14 22:12:00,64.5,62.4,29.89,SSE,148,5.0,6.0,93,0.00,,---,0.99,VWS V14.00,2013-10-15 03:12:00,
2013-10-14 22:17:00,64.5,62.4,29.90,South,171,10.0,12.0,93,0.00,,---,0.99,VWS V14.00,2013-10-15 03:17:00,
2013-10-14 22:22:00,64.5,62.4,29.89,SE,144,6.0,6.0,93,0.00,,---,0.99,VWS V14.00,2013-10-15 03:22:00,
2013-10-14 22:27:00,64.5,62.4,29.89,SSE,151,6.0,6.0,93,0.00,,---,0.99,VWS V14.00,2013-10-15 03:27:00,
2013-10-14 22:32:00,64.5,62.4,29.89,SSE,153,7.0,11.0,93,0.00,,---,0.99,VWS V14.00,2013-10-15 03:32:00,
2013-10-14 22:37:00,64.5,62.4,29.90,SSE,154,5.0,5.0,93,0.00,,---,0.99,VWS V14.00,2013-10-15 03:37:00,
2013-10-14 22:42:00,64.5,62.4,29.90,SSE,166,4.0,5.0,93,0.00,,---,0.99,VWS V14.00,2013-10-15 03:42:00,
2013-10-14 22:47:00,64.5,62.4,29.90,SSE,150,13.0,15.0,93,0.00,,---,0.99,VWS V14.00,2013-10-15 03:47:00,
2013-10-14 22:52:00,64.5,62.4,29.90,SSE,160,5.0,10.0,93,0.00,,---,0.99,VWS V14.00,2013-10-15 03:52:00,
2013-10-14 22:57:00,64.5,62.4,29.90,SSE,167,5.0,7.0,93,0.00,,---,0.99,VWS V14.00,2013-10-15 03:57:00,
2013-10-14 23:01:00,64.5,62.4,29.90,South,173,7.0,14.0,93,0.00,,---,0.99,VWS V14.00,2013-10-15 04:01:00,
2013-10-14 23:02:00,64.5,62.4,29.90,SSE,168,10.0,14.0,93,0.00,,---,0.99,VWS V14.00,2013-10-15 04:02:00,
2013-10-14 23:07:00,64.6,62.5,29.89,SSE,167,11.0,14.0,93,0.00,,---,0.99,VWS V14.00,2013-10-15 04:07:00,
2013-10-14 23:12:00,64.6,62.5,29.89,SSE,148,6.0,11.0,93,0.00,,---,0.99,VWS V14.00,2013-10-15 04:12:00,
2013-10-14 23:17:00,64.6,62.5,29.89,SSE,163,11.0,12.0,93,0.00,,---,0.99,VWS V14.00,2013-10-15 04:17:00,
2013-10-14 23:22:00,64.6,62.5,29.88,SSE,151,6.0,13.0,93,0.00,,---,0.99,VWS V14.00,2013-10-15 04:22:00,
2013-10-14 23:27:00,64.6,62.5,29.88,SSE,162,9.0,14.0,93,0.00,,---,0.99,VWS V14.00,2013-10-15 04:27:00,
2013-10-14 23:32:00,64.6,62.5,29.87,SSE,153,9.0,13.0,93,0.00,,---,0.99,VWS V14.00,2013-10-15 04:32:00,
2013-10-14 23:37:00,64.6,62.5,29.87,SE,142,12.0,13.0,93,0.00,,---,0.99,VWS V14.00,2013-10-15 04:37:00,
2013-10-14 23:42:00,64.6,62.5,29.87,SE,135,10.0,13.0,93,0.00,,---,0.99,VWS V14.00,2013-10-15 04:42:00,
2013-10-14 23:47:00,64.7,62.9,29.87,SSE,159,7.0,16.0,94,0.00,,---,0.99,VWS V14.00,2013-10-15 04:47:00,
2013-10-14 23:52:00,64.7,62.9,29.87,SE,137,8.0,12.0,94,0.00,,---,0.99,VWS V14.00,2013-10-15 04:52:00,
2013-10-14 23:57:00,64.8,63.0,29.86,SE,136,6.0,16.0,94,0.00,,---,0.99,VWS V14.00,2013-10-15 04:57:00,